天目一号 07星 (TIANMU-1 07)

导读

TIANMU-1 07(天目一号07星)是中国于2023年7月20日,在酒泉卫星发射中心通过快舟一号甲运载火箭发射入轨的气象卫星,属于天目一号气象星座组网卫星。它主要承担商业气象数据服务任务,可获取电离层、海面风场等环境信息,助力全球气象探测,与后续组网卫星共同支撑气象监测与预报,助力“一带一路”气象战略落地。

Basic Information
目录编号:
57399
目录名称:
TIANMU-1 07
国际标识:
2023-101A
轨道中心:
EARTH
卫星名称:
天目一号 07星
卫星全名:
天目一号 07星 (TIANMU-1 07)
卫星状态:
在轨 (已飞行1149 天)
发射日期:
2023-07-20 UTC
国别 :
中国 (CN)
星等 :
--
Orbit Information
数据来源 国际轨道数据 AOE轨道数据
星历时间 2026-09-11T07:00:05+0800
6小时前
查看轨道信息
2026-09-07T00:00:00+0800
4天前
查看轨道信息
半长轴 6851.967km 6852.088km
偏心率 0.0002896 0.0002637
轨道倾角 97.252° 97.252°
近地点辐角 152.876° 166.214°
升交点赤经 302.671° 298.477°
平近点角 207.263° 320.463°
近地点 471.845km 472.144km
远地点 475.815km 475.758km
周期 94.077分钟 94.079分钟
每日圈数 15.30664 15.306236
Detailed Information
覆盖范围:
全球
运营商:
中国航天科工集团有限公司
运营商所在国:
中国
制造商(研发单位):
中国航天科工集团有限公司
制造商所在国:
中国
使用方式:
暂无
Satellite Introduction
天目一号气象星座,是由中国航天科工集团落户西部(重庆)科学城西永微电园企业研制,主要用于获取全球大气环境要素信息,建成后可实现全球全天候海洋、大气层、电离层的立体化、一体化探测。该卫星仍在工作。
2D Orbit Map
3D Orbit Map
Orbit Altitude Analysis Chart
Orbit Inclination Analysis Chart
Orbit Comprehensive Analysis Chart
View Comprehensive Chart
Miss Distance Evolution Trend with All Objects
Collision Probability Evolution Trend with All Objects